Location: Stoke Bliss
(52.2667°N, 2.5167°W)
Time: 21:41:07
(UTC+00:00)

Meteor 1-19 Rocket - Pass Details

Date: 03 March 2021
Orbit: 807 x 928 km, 81.2° (Epoch: 15 April)

Event Time Altitude Azimuth Distance (km) Brightness Sun altitude
Rises 18:39:06 0° 347° (NNW) 3,578 7.6 -7.8°
Reaches altitude 10° 18:41:37 10° 348° (NNW) 2,621 6.9 -8.2°
Maximum altitude 18:47:37 81° 76° (ENE) 919 4.3 -9.1°
Drops below altitude 10° 18:53:26 10° 164° (SSE) 2,533 6.5 -10.0°
Sets 18:55:49 0° 166° (SSE) 3,449 7.2 -10.3°
